Wind_Speed
8 7 9 12 16 17 16 14 14 14 14 15 15 15 15 16 17 19 19 19 19 19 19 20 20 20 20 22 23 20 17 18
9 10 10 10 10 12 12 12 12 13 14 14 16 16 18 18 17 18 19 17 16 16 16 17 17 17 17 20 18 17 17 17
11 12 11 10 9 10 10 11 13 13 13 13 12 11 13 15 16 16 16 16 17 16 15 15 15 16 15 18 16 16 15 16
13 12 11 11 10 10 11 11 10 10 10 9 9 10 12 14 15 16 17 19 17 16 17 18 15 13 13 14 14 13 14 15
13 12 11 11 12 11 12 11 11 10 9 8 9 9 9 9 10 11 12 15 14 15 16 17 17 15 15 14 12 12 11 12
13 11 12 11 12 11 11 11 10 9 8 9 9 10 11 12 12 12 13 13 14 14 14 15 15 16 15 14 13 12 10 9
14 12 12 12 12 12 11 11 9 9 8 9 10 12 13 12 13 13 14 13 13 13 13 13 14 14 14 13 12 12 11 9
14 13 12 12 11 12 11 10 10 9 9 10 11 11 13 13 14 14 14 13 13 13 12 11 12 11 11 11 10 10 10 9
16 15 12 11 12 12 10 10 10 10 10 10 11 11 12 12 12 12 11 11 11 11 11 11 10 9 9 8 7 8 8 9
16 16 15 13 12 12 10 11 9 9 9 9 10 10 10 11 11 10 10 10 9 11 10 11 10 9 8 7 6 6 6 8
16 17 18 15 14 12 11 11 10 9 9 8 9 9 9 9 9 9 8 8 9 9 9 10 11 12 11 9 6 6 6 8
17 17 19 17 15 13 12 10 10 9 8 8 8 8 8 8 8 7 7 7 8 8 9 10 11 13 12 11 7 5 8 6
19 20 21 19 16 16 14 13 11 9 8 8 7 7 7 6 6 6 7 7 9 10 9 11 12 16 12 15 9 6 4 9
20 21 22 20 17 15 14 13 11 10 9 8 7 7 6 5 5 4 5 5 8 10 11 12 12 13 14 16 7 11 1 25
24 23 23 21 18 16 14 13 12 11 10 8 7 7 5 5 4 5 6 7 7 9 11 12 13 11 12 9 7 7 20 5
25 24 24 22 21 19 19 17 15 13 12 10 9 8 6 5 5 5 6 5 7 8 9 10 12 12 13 12 10 14 10 8
27 26 25 23 23 20 19 15 13 13 12 13 10 8 7 6 5 5 4 4 6 8 8 9 10 11 11 13 13 13 14 15
28 28 27 25 25 22 20 18 15 15 15 14 11 9 7 6 6 5 5 5 6 7 7 9 9 9 11 10 11 12 13 13
29 29 28 26 25 23 21 19 17 15 16 14 13 11 9 7 6 5 5 5 7 6 6 7 8 9 9 10 9 9 10 11
28 28 27 27 25 23 20 19 17 15 14 12 12 10 9 10 8 8 5 5 6 5 6 7 7 8 9 9 10 9 9 10
Wind_Direction
131 132 135 131 123 121 117 111 101 96 95 96 89 88 89 87 83 79 79 78 80 79 77 73 70 68 65 64 63 58 56 52
133 130 129 122 121 132 126 119 116 111 101 96 87 82 78 76 72 81 79 78 79 78 75 73 69 66 63 63 53 51 50 51
133 128 125 122 118 118 122 120 121 109 101 97 84 89 82 79 85 81 77 77 77 76 73 69 56 52 56 60 52 50 50 49
137 132 132 127 125 119 118 116 116 110 101 94 92 97 97 89 84 79 81 70 72 69 68 57 57 53 45 47 50 50 50 48
145 140 139 137 134 129 124 121 114 104 94 97 102 99 95 92 84 76 69 68 66 61 58 56 55 54 49 50 47 44 45 45
147 144 142 142 139 135 131 128 123 111 101 92 98 99 96 93 86 77 72 66 62 59 55 55 54 52 51 50 48 46 43 45
156 150 146 147 142 139 136 131 124 118 104 100 104 102 97 93 85 79 71 65 60 57 54 54 51 48 49 47 45 45 44 45
163 158 153 149 147 142 140 135 129 123 113 108 103 104 101 94 87 79 73 67 63 59 55 49 49 44 42 44 44 43 40 38
172 168 161 153 151 145 142 141 135 128 124 114 106 102 102 97 91 83 75 66 59 54 47 43 40 34 33 28 29 33 29 27
173 175 170 162 161 153 146 145 139 133 130 120 111 108 103 97 90 83 76 65 55 48 39 32 24 14 6 4 8 11 18 13
173 174 173 166 162 156 151 150 143 138 132 129 121 111 104 98 90 82 73 62 54 40 31 25 16 2 346 339 334 345 358 354
173 171 170 165 160 157 156 153 150 143 137 139 125 119 108 99 92 80 65 56 45 35 30 22 15 358 342 336 300 316 333 345
175 172 172 169 169 168 165 163 158 152 146 139 133 128 118 107 96 80 69 58 47 33 16 9 5 358 345 337 315 274 287 318
177 178 177 177 174 171 167 162 161 159 155 151 146 140 133 116 108 90 71 50 43 32 23 5 360 4 351 328 333 321 305 326
181 181 181 181 176 169 166 163 164 162 165 160 160 152 142 131 109 86 56 42 31 23 12 8 354 358 0 1 332 341 329 333
183 182 182 184 181 180 179 178 180 183 174 170 163 157 150 137 111 89 68 45 28 13 10 10 3 355 349 349 331 321 323 313
183 181 183 185 188 188 188 192 186 175 173 167 166 160 152 140 124 102 74 48 37 36 32 23 10 360 349 342 333 324 322 320
184 183 184 186 188 192 193 191 183 176 177 176 174 168 159 151 139 116 94 80 53 55 33 25 11 359 350 340 334 332 332 327
186 186 184 185 188 192 193 192 190 186 181 182 178 174 171 164 146 125 97 80 67 55 29 15 9 4 354 345 340 341 336 329
188 188 185 185 186 190 193 193 194 192 188 184 182 177 168 153 137 119 108 78 74 46 18 12 3 1 355 354 344 341 334 332
Height
875 877 877 878 877 878 879 881 882 882 882 881 881 881 880 880 879 878 877 877 876 875 874 873 872 871 870 869 868 867 867 867
875 877 879 881 881 881 881 882 883 884 884 884 884 884 884 883 882 881 881 880 879 878 877 877 876 875 874 873 871 871 870 870
875 877 880 882 884 884 884 884 885 886 886 887 887 888 888 886 885 884 884 883 882 881 881 880 879 878 877 876 875 875 874 874
875 877 880 882 884 886 887 888 889 889 889 889 890 889 889 889 888 888 887 886 886 885 884 883 882 882 880 879 878 878 877 877
876 878 880 882 884 886 887 889 890 891 891 891 891 892 892 892 892 892 891 890 890 889 888 886 885 884 883 882 881 879 879 879
877 879 880 883 884 886 888 889 891 893 893 893 893 893 893 894 894 893 893 893 892 892 891 890 889 887 886 885 884 882 881 881
877 880 881 883 885 886 888 890 892 893 894 894 895 895 895 896 896 896 896 896 895 895 894 892 891 890 889 888 886 884 883 882
877 880 882 884 885 887 890 891 893 895 896 896 897 897 897 898 898 898 898 899 898 897 896 895 893 892 891 890 888 886 885 884
876 880 883 885 887 888 890 893 894 896 897 897 898 899 899 900 900 900 901 901 901 900 899 897 895 894 892 891 889 888 887 885
875 878 881 885 887 889 891 894 895 897 898 899 899 900 901 901 902 902 902 902 902 901 900 898 897 895 893 891 889 888 887 886
873 876 880 884 887 889 891 894 896 898 899 900 900 901 902 903 903 903 904 904 903 902 901 900 898 896 893 892 891 889 888 886
872 875 880 883 886 889 892 894 897 898 900 901 901 902 903 904 904 905 905 904 904 903 903 901 900 898 893 890 890 889 888 887
870 873 878 881 884 887 890 893 896 898 900 901 902 903 904 905 906 906 905 905 904 904 903 902 900 898 893 889 884 885 886 885
867 871 876 879 882 885 888 892 895 898 900 901 902 903 904 906 906 906 906 906 905 905 903 902 900 899 898 890 882 879 881 882
862 868 873 877 880 884 888 891 895 897 899 901 902 903 905 906 906 906 907 907 907 906 905 903 901 899 899 898 889 884 886 878
859 864 869 874 878 882 885 887 890 893 897 900 902 903 905 906 906 907 907 908 907 907 906 905 903 901 900 899 899 896 890 880
854 860 866 871 875 879 882 884 887 891 895 898 900 902 904 906 906 907 907 907 907 906 906 905 905 904 902 900 899 895 892 889
850 855 860 866 871 875 879 882 885 888 892 896 899 901 903 904 905 906 907 906 906 906 907 906 906 904 903 901 899 897 894 892
845 850 855 862 867 872 876 880 883 886 889 893 896 899 901 903 905 906 905 905 905 907 907 907 906 904 903 901 899 898 896 893
841 847 853 858 864 869 874 877 881 883 887 890 893 897 900 903 904 904 904 905 907 907 907 906 905 904 903 902 900 898 896 894